• In Hungary
  • List of Countries
  • For 7 days
  • Water Temperature
  • Satellite Maps
  • Weather Map
  • News
  • Weather Widgets
  • user-avatar
    Login

    Hourly Weather Novyy Zagan

    Today, 24 February, Saturday

    Time Temperature Precipitation Wind Pressure Humidity
    00:00 -19°C° 0 mm 1 mps 702 mmHg 91%
    01:00 -19°C° 0 mm 1 mps 702 mmHg 90%
    02:00 -19°C° 0 mm 1 mps 702 mmHg 90%
    03:00 -19°C° 0 mm 1 mps 702 mmHg 90%
    04:00 -19°C° 0 mm 1 mps 702 mmHg 90%
    05:00 -19°C° 0 mm 1 mps 702 mmHg 90%
    06:00 -18°C° 0 mm 1 mps 702 mmHg 90%
    07:00 -18°C° 0 mm 1 mps 702 mmHg 90%
    08:00 -16°C° 0 mm 1 mps 702 mmHg 88%
    09:00 -14°C° 0 mm 1 mps 702 mmHg 86%
    10:00 -12°C° 0 mm 1 mps 701 mmHg 84%
    11:00 -11°C° 0 mm 1 mps 701 mmHg 83%
    12:00 -9°C° 0 mm 1 mps 701 mmHg 82%
    13:00 -9°C° 0 mm 1 mps 701 mmHg 81%
    14:00 -9°C° 0 mm 1 mps 701 mmHg 82%
    15:00 -9°C° 0 mm 1 mps 701 mmHg 84%
    16:00 -9°C° 0 mm 1 mps 700 mmHg 85%
    17:00 -11°C° 0 mm 1 mps 700 mmHg 88%
    18:00 -14°C° 0 mm 1 mps 700 mmHg 92%
    19:00 -15°C° 0 mm 1 mps 699 mmHg 94%
    20:00 -16°C° 0 mm 1 mps 699 mmHg 94%
    21:00 -16°C° 0 mm 1 mps 700 mmHg 94%
    22:00 -17°C° 0 mm 1 mps 700 mmHg 94%
    23:00 -17°C° 0 mm 1 mps 700 mmHg 93%

    Tomorrow, 25 February, Sunday

    Time Temperature Precipitation Wind Pressure Humidity
    00:00 -17°C° 0 mm 1 mps 699 mmHg 93%
    01:00 -17°C° 0 mm 1 mps 699 mmHg 92%
    02:00 -17°C° 0 mm 1 mps 699 mmHg 92%
    03:00 -17°C° 0 mm 1 mps 699 mmHg 91%
    04:00 -18°C° 0 mm 1 mps 698 mmHg 91%
    05:00 -18°C° 0 mm 1 mps 698 mmHg 90%
    06:00 -18°C° 0 mm 1 mps 698 mmHg 90%
    07:00 -18°C° 0 mm 1 mps 698 mmHg 89%
    08:00 -15°C° 0 mm 1 mps 698 mmHg 86%
    09:00 -13°C° 0 mm 1 mps 698 mmHg 82%
    10:00 -10°C° 0 mm 1 mps 698 mmHg 79%
    11:00 -9°C° 0 mm 1 mps 698 mmHg 78%
    12:00 -7°C° 0 mm 1 mps 698 mmHg 78%
    13:00 -6°C° 0 mm 1 mps 697 mmHg 77%
    14:00 -6°C° 0 mm 1 mps 697 mmHg 80%
    15:00 -6°C° 0 mm 1 mps 697 mmHg 83%
    16:00 -6°C° 0 mm 1 mps 697 mmHg 85%
    17:00 -7°C° 0 mm 1 mps 697 mmHg 88%
    18:00 -9°C° 0 mm 1 mps 698 mmHg 90%
    19:00 -10°C° 0 mm 1 mps 698 mmHg 92%
    20:00 -10°C° 0.1 mm 1 mps 698 mmHg 93%
    21:00 -11°C° 0.1 mm 1 mps 699 mmHg 94%
    22:00 -11°C° 0.1 mm 1 mps 699 mmHg 94%
    23:00 -11°C° 0.1 mm 1 mps 700 mmHg 94%

    Day after tomorrow, 26 February, Monday

    Time Temperature Precipitation Wind Pressure Humidity
    00:00 -11°C° 0.1 mm 1 mps 700 mmHg 95%
    01:00 -12°C° 0.1 mm 1 mps 700 mmHg 95%
    02:00 -12°C° 0.2 mm 1 mps 701 mmHg 95%
    03:00 -11°C° 0.2 mm 1 mps 701 mmHg 96%
    04:00 -11°C° 0.2 mm 1 mps 702 mmHg 96%
    05:00 -11°C° 0.1 mm 1 mps 702 mmHg 95%
    06:00 -11°C° 0.1 mm 1 mps 703 mmHg 95%
    07:00 -12°C° 0.1 mm 1 mps 703 mmHg 95%
    08:00 -11°C° 0 mm 1 mps 703 mmHg 90%
    09:00 -12°C° 0 mm 2 mps 703 mmHg 85%
    10:00 -12°C° 0 mm 2 mps 703 mmHg 81%
    11:00 -10°C° 0 mm 2 mps 703 mmHg 79%
    12:00 -8°C° 0 mm 1 mps 703 mmHg 77%
    13:00 -8°C° 0 mm 1 mps 703 mmHg 75%
    14:00 -8°C° 0 mm 1 mps 702 mmHg 77%
    15:00 -8°C° 0 mm 1 mps 702 mmHg 79%
    16:00 -9°C° 0 mm 0 mps 702 mmHg 81%
    17:00 -10°C° 0 mm 0 mps 702 mmHg 83%
    18:00 -12°C° 0 mm 0 mps 701 mmHg 86%
    19:00 -14°C° 0 mm 0 mps 701 mmHg 89%
    20:00 -15°C° 0 mm 0 mps 701 mmHg 90%
    21:00 -15°C° 0 mm 1 mps 701 mmHg 91%
    22:00 -15°C° 0 mm 1 mps 701 mmHg 92%
    23:00 -16°C° 0 mm 1 mps 700 mmHg 93%

    27 February, Tuesday

    Time Temperature Precipitation Wind Pressure Humidity
    00:00 -16°C° 0 mm 1 mps 700 mmHg 94%
    01:00 -16°C° 0 mm 1 mps 700 mmHg 94%
    02:00 -15°C° 0.1 mm 1 mps 700 mmHg 95%
    03:00 -15°C° 0.1 mm 1 mps 700 mmHg 95%
    04:00 -15°C° 0.1 mm 1 mps 699 mmHg 96%
    05:00 -15°C° 0.1 mm 1 mps 699 mmHg 96%
    06:00 -15°C° 0.1 mm 1 mps 699 mmHg 96%
    07:00 -15°C° 0.1 mm 1 mps 699 mmHg 96%
    08:00 -14°C° 0.1 mm 1 mps 699 mmHg 93%
    09:00 -12°C° 0.1 mm 1 mps 698 mmHg 90%
    10:00 -11°C° 0.1 mm 1 mps 698 mmHg 88%
    11:00 -10°C° 0.1 mm 1 mps 698 mmHg 85%
    12:00 -9°C° 0.1 mm 1 mps 697 mmHg 83%
    13:00 -9°C° 0.1 mm 1 mps 697 mmHg 80%
    14:00 -9°C° 0 mm 1 mps 696 mmHg 81%
    15:00 -10°C° 0 mm 2 mps 696 mmHg 81%
    16:00 -10°C° 0 mm 2 mps 696 mmHg 82%
    17:00 -14°C° 0 mm 2 mps 696 mmHg 84%
    18:00 -16°C° 0 mm 2 mps 696 mmHg 86%
    19:00 -16°C° 0 mm 1 mps 697 mmHg 89%
    20:00 -17°C° 0 mm 1 mps 697 mmHg 90%
    21:00 -18°C° 0 mm 1 mps 697 mmHg 91%
    22:00 -18°C° 0 mm 1 mps 697 mmHg 92%
    23:00 -19°C° 0 mm 1 mps 697 mmHg 92%

    28 February, Wednesday

    Time Temperature Precipitation Wind Pressure Humidity
    00:00 -20°C° 0 mm 1 mps 697 mmHg 93%
    01:00 -20°C° 0 mm 1 mps 698 mmHg 93%
    02:00 -21°C° 0 mm 1 mps 698 mmHg 92%
    03:00 -21°C° 0 mm 1 mps 698 mmHg 92%
    04:00 -22°C° 0 mm 0 mps 698 mmHg 92%
    05:00 -21°C° 0 mm 0 mps 699 mmHg 92%
    06:00 -21°C° 0 mm 1 mps 699 mmHg 92%
    07:00 -21°C° 0 mm 1 mps 700 mmHg 93%
    08:00 -19°C° 0 mm 1 mps 700 mmHg 90%
    09:00 -18°C° 0 mm 2 mps 700 mmHg 88%
    10:00 -17°C° 0 mm 3 mps 701 mmHg 85%
    11:00 -17°C° 0 mm 3 mps 700 mmHg 82%
    12:00 -16°C° 0 mm 3 mps 700 mmHg 80%
    13:00 -17°C° 0 mm 4 mps 700 mmHg 77%
    14:00 -16°C° 0 mm 3 mps 699 mmHg 78%
    15:00 -16°C° 0 mm 3 mps 699 mmHg 78%
    16:00 -16°C° 0 mm 2 mps 699 mmHg 79%
    17:00 -18°C° 0 mm 2 mps 699 mmHg 83%
    18:00 -18°C° 0 mm 1 mps 699 mmHg 87%
    19:00 -21°C° 0 mm 1 mps 698 mmHg 91%
    20:00 -21°C° 0 mm 1 mps 698 mmHg 91%
    21:00 -22°C° 0 mm 1 mps 698 mmHg 91%
    22:00 -22°C° 0 mm 1 mps 698 mmHg 92%
    23:00 -23°C° 0 mm 1 mps 698 mmHg 92%

    1 March, Thursday

    Time Temperature Precipitation Wind Pressure Humidity
    00:00 -23°C° 0 mm 1 mps 697 mmHg 92%
    01:00 -23°C° 0 mm 1 mps 697 mmHg 92%
    02:00 -24°C° 0 mm 1 mps 696 mmHg 92%
    03:00 -24°C° 0 mm 1 mps 696 mmHg 92%
    04:00 -24°C° 0 mm 1 mps 696 mmHg 93%
    05:00 -24°C° 0 mm 1 mps 696 mmHg 93%
    06:00 -24°C° 0 mm 1 mps 696 mmHg 93%
    07:00 -24°C° 0 mm 1 mps 696 mmHg 93%
    08:00 -21°C° 0 mm 1 mps 696 mmHg 90%
    09:00 -19°C° 0 mm 1 mps 696 mmHg 87%
    10:00 -16°C° 0 mm 1 mps 696 mmHg 84%
    11:00 -17°C° 0 mm 2 mps 696 mmHg 82%
    12:00 -16°C° 0 mm 2 mps 696 mmHg 79%
    13:00 -16°C° 0 mm 3 mps 696 mmHg 77%
    14:00 -17°C° 0 mm 3 mps 696 mmHg 78%
    15:00 -18°C° 0 mm 4 mps 696 mmHg 78%
    16:00 -18°C° 0 mm 4 mps 697 mmHg 79%
    17:00 -18°C° 0 mm 3 mps 697 mmHg 82%
    18:00 -21°C° 0 mm 3 mps 698 mmHg 85%
    19:00 -22°C° 0 mm 3 mps 699 mmHg 89%
    20:00 -21°C° 0 mm 2 mps 699 mmHg 90%
    21:00 -24°C° 0 mm 2 mps 699 mmHg 92%
    22:00 -25°C° 0 mm 2 mps 700 mmHg 93%
    23:00 -23°C° 0 mm 1 mps 700 mmHg 94%
    Show more